User: anonymous
Location: Caltech
(34.1382°N, 118.1253°W)
Time: 03:43:01
(UTC-07:00)
Language:

ALOS - Orbit

View from above orbital plane
View from above orbital plane
View from above satellite
View from above satellite

Ground track
Ground track

The orbit data is extracted from the following two-line orbital elements,

1 28931U 06002A   14209.18582841  .00000270  00000-0  63827-4 0   141
2 28931 097.9788 265.8160 0002416 073.9369 286.2052 14.61218105453311
Epoch (UTC): 28 July 2014 04:27:35
Eccentricity: 0.0002416
inclination: 97.9788°
perigee height: 687 km
apogee height: 691 km
right ascension of ascending node: 265.8160°
argument of perigee: 73.9369°
revolutions per day: 14.61218105
mean anomaly at epoch: 286.2052°
orbit number at epoch: 45331

The dashed part of the orbit path shows where the satellite is in the earth's shadow,  

DLR